Time,TemperatureF,DewpointF,PressureIn,WindDirection,WindDirectionDegrees,WindSpeedMPH,WindSpeedGustMPH,Humidity,HourlyPrecipIn,Conditions,Clouds,dailyrainin,SoftwareType,DateUTC
2015-02-01 00:00:00,39.7,37.0,29.85,SW,225,5.8,9.2,90,0.08,,,0.00,VWS V15.00,2015-02-01 06:00:00,
2015-02-01 00:05:00,39.7,37.3,29.82,South,180,7.6,7.6,91,0.08,,,0.00,VWS V15.00,2015-02-01 06:05:00,
2015-02-01 00:10:00,39.9,37.8,29.82,SW,225,3.6,11.9,92,0.08,,,0.00,VWS V15.00,2015-02-01 06:10:00,
2015-02-01 00:15:00,39.9,38.1,29.82,SW,225,8.3,10.5,93,0.09,,,0.05,VWS V15.00,2015-02-01 06:15:00,
2015-02-01 00:20:00,39.9,38.1,29.82,WSW,248,5.4,8.1,93,0.09,,,0.05,VWS V15.00,2015-02-01 06:20:00,
2015-02-01 00:30:00,39.7,38.2,29.82,SW,225,7.6,11.4,94,0.09,,,0.05,VWS V15.00,2015-02-01 06:30:00,
2015-02-01 00:35:00,39.7,38.2,29.82,WSW,248,6.3,10.1,94,0.09,,,0.05,VWS V15.00,2015-02-01 06:35:00,
2015-02-01 00:40:00,39.7,38.2,29.82,WSW,248,7.2,11.0,94,0.09,,,0.05,VWS V15.00,2015-02-01 06:40:00,
2015-02-01 00:45:00,39.7,38.4,29.82,West,270,5.4,5.4,95,0.05,,,0.05,VWS V15.00,2015-02-01 06:45:00,
2015-02-01 00:50:00,39.7,38.4,29.79,WSW,248,4.0,5.8,95,0.05,,,0.05,VWS V15.00,2015-02-01 06:50:00,
2015-02-01 00:55:00,39.7,38.4,29.79,SW,225,7.2,7.2,95,0.13,,,0.13,VWS V15.00,2015-02-01 06:55:00,
2015-02-01 01:00:00,39.6,38.2,29.79,West,270,8.3,11.0,95,0.13,,,0.13,VWS V15.00,2015-02-01 07:00:00,
2015-02-01 01:05:00,39.6,38.5,29.79,SW,225,6.3,8.7,96,0.13,,,0.13,VWS V15.00,2015-02-01 07:05:00,
2015-02-01 01:10:00,39.7,38.7,29.79,WSW,248,3.1,4.9,96,0.17,,,0.17,VWS V15.00,2015-02-01 07:10:00,
2015-02-01 01:14:00,39.7,38.7,29.79,WSW,248,8.1,8.7,96,0.12,,,0.17,VWS V15.00,2015-02-01 07:14:00,
2015-02-01 01:19:00,39.7,38.7,29.79,SW,225,2.7,5.4,96,0.12,,,0.17,VWS V15.00,2015-02-01 07:19:00,
2015-02-01 01:24:00,39.9,38.9,29.79,SW,225,3.1,5.8,96,0.12,,,0.17,VWS V15.00,2015-02-01 07:24:00,
2015-02-01 01:29:00,39.9,38.9,29.79,SW,225,8.3,8.3,96,0.12,,,0.17,VWS V15.00,2015-02-01 07:29:00,
2015-02-01 01:34:00,40.1,39.0,29.76,SW,225,6.3,6.3,96,0.16,,,0.21,VWS V15.00,2015-02-01 07:34:00,
2015-02-01 01:39:00,40.1,39.3,29.76,SW,225,5.8,7.2,97,0.16,,,0.21,VWS V15.00,2015-02-01 07:39:00,
2015-02-01 01:44:00,40.1,39.3,29.76,SW,225,3.6,3.6,97,0.16,,,0.21,VWS V15.00,2015-02-01 07:44:00,
2015-02-01 01:49:00,40.3,39.5,29.76,SW,225,0.0,3.1,97,0.24,,,0.29,VWS V15.00,2015-02-01 07:49:00,
2015-02-01 01:54:00,40.3,39.5,29.76,West,270,5.4,5.8,97,0.16,,,0.29,VWS V15.00,2015-02-01 07:54:00,
2015-02-01 01:59:00,40.5,39.7,29.76,SW,225,3.6,4.9,97,0.16,,,0.29,VWS V15.00,2015-02-01 07:59:00,
2015-02-01 02:04:00,40.6,39.9,29.76,SW,225,4.0,7.2,97,0.16,,,0.29,VWS V15.00,2015-02-01 08:04:00,
2015-02-01 02:09:00,40.8,40.0,29.76,WNW,292,5.8,5.8,97,0.12,,,0.29,VWS V15.00,2015-02-01 08:09:00,
2015-02-01 02:14:00,41.0,40.2,29.76,WNW,292,6.3,6.3,97,0.12,,,0.29,VWS V15.00,2015-02-01 08:14:00,
2015-02-01 02:19:00,41.2,40.4,29.76,WNW,292,3.1,5.8,97,0.12,,,0.29,VWS V15.00,2015-02-01 08:19:00,
2015-02-01 02:24:00,41.4,40.6,29.76,West,270,6.7,6.7,97,0.12,,,0.29,VWS V15.00,2015-02-01 08:24:00,
2015-02-01 02:29:00,41.5,40.8,29.76,WNW,292,4.0,5.8,97,0.12,,,0.29,VWS V15.00,2015-02-01 08:29:00,
2015-02-01 02:34:00,41.5,40.8,29.76,WNW,292,5.8,6.3,97,0.17,,,0.38,VWS V15.00,2015-02-01 08:34:00,
2015-02-01 02:39:00,41.5,40.5,29.76,NW,315,4.0,4.0,96,0.17,,,0.38,VWS V15.00,2015-02-01 08:39:00,
2015-02-01 02:45:00,41.5,40.5,29.76,NW,315,5.4,5.8,96,0.17,,,0.38,VWS V15.00,2015-02-01 08:45:00,
2015-02-01 02:50:00,41.7,40.7,29.76,West,270,3.6,4.9,96,0.09,,,0.38,VWS V15.00,2015-02-01 08:50:00,
2015-02-01 02:55:00,41.7,40.7,29.76,NW,315,3.6,4.0,96,0.09,,,0.38,VWS V15.00,2015-02-01 08:55:00,
2015-02-01 03:00:00,41.7,40.7,29.76,WNW,292,3.6,5.4,96,0.09,,,0.38,VWS V15.00,2015-02-01 09:00:00,
2015-02-01 03:05:00,41.7,40.7,29.76,WNW,292,6.3,6.3,96,0.13,,,0.42,VWS V15.00,2015-02-01 09:05:00,
2015-02-01 03:10:00,41.9,40.8,29.76,WNW,292,3.1,5.4,96,0.13,,,0.42,VWS V15.00,2015-02-01 09:10:00,
2015-02-01 03:15:00,42.1,40.8,29.76,WNW,292,5.4,6.3,95,0.13,,,0.42,VWS V15.00,2015-02-01 09:15:00,
2015-02-01 03:20:00,42.1,40.8,29.76,West,270,5.8,8.3,95,0.13,,,0.42,VWS V15.00,2015-02-01 09:20:00,
2015-02-01 03:25:00,42.3,40.9,29.76,West,270,6.3,6.3,95,0.13,,,0.42,VWS V15.00,2015-02-01 09:25:00,
2015-02-01 03:30:00,42.4,41.1,29.76,West,270,4.9,6.3,95,0.13,,,0.42,VWS V15.00,2015-02-01 09:30:00,
2015-02-01 03:35:00,42.6,41.3,29.76,West,270,5.8,7.6,95,0.04,,,0.42,VWS V15.00,2015-02-01 09:35:00,
2015-02-01 03:40:00,42.8,41.2,29.76,WNW,292,8.7,8.7,94,0.04,,,0.42,VWS V15.00,2015-02-01 09:40:00,
2015-02-01 03:45:00,43.0,41.4,29.76,West,270,6.3,6.3,94,0.04,,,0.42,VWS V15.00,2015-02-01 09:45:00,
2015-02-01 03:49:00,43.2,41.5,29.74,West,270,5.8,7.6,94,0.04,,,0.42,VWS V15.00,2015-02-01 09:49:00,
2015-02-01 03:54:00,43.3,41.7,29.74,West,270,8.1,8.1,94,0.04,,,0.42,VWS V15.00,2015-02-01 09:54:00,
2015-02-01 03:59:00,43.5,41.9,29.74,West,270,7.6,7.6,94,0.04,,,0.42,VWS V15.00,2015-02-01 09:59:00,
2015-02-01 04:04:00,43.7,42.1,29.74,NW,315,2.7,5.8,94,0.04,,,0.42,VWS V15.00,2015-02-01 10:04:00,
2015-02-01 04:09:00,43.7,42.1,29.74,WNW,292,3.1,4.0,94,0.00,,,0.42,VWS V15.00,2015-02-01 10:09:00,
2015-02-01 04:14:00,43.9,42.3,29.74,West,270,3.6,6.3,94,0.00,,,0.42,VWS V15.00,2015-02-01 10:14:00,
2015-02-01 04:19:00,43.9,42.3,29.74,West,270,6.3,6.3,94,0.00,,,0.42,VWS V15.00,2015-02-01 10:19:00,
2015-02-01 04:24:00,44.1,42.5,29.74,West,270,2.2,5.4,94,0.00,,,0.42,VWS V15.00,2015-02-01 10:24:00,
2015-02-01 04:29:00,44.1,42.5,29.74,West,270,4.0,5.4,94,0.00,,,0.42,VWS V15.00,2015-02-01 10:29:00,
2015-02-01 04:34:00,44.2,42.6,29.74,West,270,4.9,5.8,94,0.00,,,0.42,VWS V15.00,2015-02-01 10:34:00,
2015-02-01 04:39:00,44.2,42.6,29.74,West,270,3.1,3.1,94,0.00,,,0.42,VWS V15.00,2015-02-01 10:39:00,
2015-02-01 04:44:00,44.4,42.8,29.74,WSW,248,3.6,7.2,94,0.00,,,0.42,VWS V15.00,2015-02-01 10:44:00,
2015-02-01 04:49:00,44.6,42.7,29.74,SW,225,4.9,6.3,93,0.00,,,0.42,VWS V15.00,2015-02-01 10:49:00,
2015-02-01 04:54:00,44.6,42.7,29.74,WSW,248,3.6,6.3,93,0.00,,,0.42,VWS V15.00,2015-02-01 10:54:00,
2015-02-01 04:59:00,44.8,42.9,29.74,SW,225,4.9,8.1,93,0.00,,,0.42,VWS V15.00,2015-02-01 10:59:00,
2015-02-01 05:04:00,44.8,42.9,29.74,West,270,4.9,6.7,93,0.00,,,0.42,VWS V15.00,2015-02-01 11:04:00,
2015-02-01 05:09:00,45.0,43.1,29.74,WNW,292,5.4,6.3,93,0.00,,,0.42,VWS V15.00,2015-02-01 11:09:00,
2015-02-01 05:14:00,45.1,43.2,29.74,West,270,8.7,8.7,93,0.00,,,0.42,VWS V15.00,2015-02-01 11:14:00,
2015-02-01 05:19:00,45.1,43.2,29.71,West,270,3.1,4.0,93,0.00,,,0.42,VWS V15.00,2015-02-01 11:19:00,
2015-02-01 05:24:00,45.3,43.4,29.71,West,270,4.0,4.9,93,0.00,,,0.42,VWS V15.00,2015-02-01 11:24:00,
2015-02-01 05:29:00,45.3,43.4,29.71,WNW,292,5.8,6.7,93,0.00,,,0.42,VWS V15.00,2015-02-01 11:29:00,
2015-02-01 05:34:00,45.5,43.6,29.71,West,270,3.6,5.8,93,0.00,,,0.42,VWS V15.00,2015-02-01 11:34:00,
2015-02-01 05:39:00,45.7,43.8,29.71,West,270,5.8,5.8,93,0.00,,,0.42,VWS V15.00,2015-02-01 11:39:00,
2015-02-01 05:44:00,45.7,43.8,29.71,West,270,3.1,5.8,93,0.00,,,0.42,VWS V15.00,2015-02-01 11:44:00,
2015-02-01 05:49:00,46.0,44.1,29.71,West,270,4.9,6.3,93,0.00,,,0.42,VWS V15.00,2015-02-01 11:49:00,
2015-02-01 05:54:00,46.2,44.3,29.71,West,270,4.0,5.8,93,0.00,,,0.42,VWS V15.00,2015-02-01 11:54:00,
2015-02-01 05:59:00,46.4,44.5,29.71,WNW,292,4.0,4.5,93,0.00,,,0.42,VWS V15.00,2015-02-01 11:59:00,
2015-02-01 06:04:00,46.4,44.5,29.74,West,270,5.8,8.1,93,0.00,,,0.42,VWS V15.00,2015-02-01 12:04:00,
2015-02-01 06:09:00,46.6,44.7,29.74,WNW,292,6.3,8.7,93,0.00,,,0.42,VWS V15.00,2015-02-01 12:09:00,
2015-02-01 06:14:00,46.6,44.7,29.74,WNW,292,7.2,7.2,93,0.00,,,0.42,VWS V15.00,2015-02-01 12:14:00,
2015-02-01 06:19:00,46.8,44.8,29.74,West,270,4.0,4.9,93,0.00,,,0.42,VWS V15.00,2015-02-01 12:19:00,
2015-02-01 06:24:00,46.9,45.0,29.74,NW,315,6.3,6.3,93,0.00,,,0.42,VWS V15.00,2015-02-01 12:24:00,
2015-02-01 06:29:00,47.3,45.4,29.74,West,270,8.1,8.1,93,0.00,,,0.42,VWS V15.00,2015-02-01 12:29:00,
2015-02-01 06:34:00,47.1,45.2,29.71,NW,315,4.9,4.9,93,0.00,,,0.42,VWS V15.00,2015-02-01 12:34:00,
2015-02-01 06:39:00,47.3,45.4,29.71,West,270,8.7,8.7,93,0.00,,,0.42,VWS V15.00,2015-02-01 12:39:00,
2015-02-01 06:44:00,47.3,45.4,29.71,NW,315,7.2,8.1,93,0.00,,,0.42,VWS V15.00,2015-02-01 12:44:00,
2015-02-01 06:49:00,47.3,45.4,29.74,NW,315,6.3,9.2,93,0.00,,,0.42,VWS V15.00,2015-02-01 12:49:00,
2015-02-01 06:54:00,47.5,45.6,29.74,NW,315,7.6,11.0,93,0.00,,,0.42,VWS V15.00,2015-02-01 12:54:00,
2015-02-01 06:59:00,47.3,45.4,29.74,NW,315,6.7,7.6,93,0.00,,,0.42,VWS V15.00,2015-02-01 12:59:00,
2015-02-01 07:04:00,47.5,45.6,29.74,West,270,6.3,8.1,93,0.00,,,0.42,VWS V15.00,2015-02-01 13:04:00,
2015-02-01 07:09:00,47.5,45.6,29.74,WNW,292,6.3,6.3,93,0.00,,,0.42,VWS V15.00,2015-02-01 13:09:00,
2015-02-01 07:14:00,47.5,45.6,29.74,NW,315,8.3,8.3,93,0.00,,,0.42,VWS V15.00,2015-02-01 13:14:00,
2015-02-01 07:19:00,47.7,45.5,29.74,NW,315,8.1,10.5,92,0.00,,,0.42,VWS V15.00,2015-02-01 13:19:00,
2015-02-01 07:24:00,47.8,45.6,29.74,WNW,292,8.1,8.1,92,0.00,,,0.42,VWS V15.00,2015-02-01 13:24:00,
2015-02-01 07:29:00,48.0,45.8,29.74,NW,315,7.6,10.1,92,0.00,,,0.42,VWS V15.00,2015-02-01 13:29:00,
2015-02-01 07:34:00,48.4,46.2,29.74,NW,315,4.0,7.2,92,0.00,,,0.42,VWS V15.00,2015-02-01 13:34:00,
2015-02-01 07:39:00,48.6,46.3,29.74,WNW,292,5.4,8.1,92,0.00,,,0.42,VWS V15.00,2015-02-01 13:39:00,
2015-02-01 07:44:00,48.6,46.3,29.74,NW,315,8.1,9.2,92,0.00,,,0.42,VWS V15.00,2015-02-01 13:44:00,
2015-02-01 07:49:00,48.7,46.5,29.74,NW,315,6.3,8.3,92,0.00,,,0.42,VWS V15.00,2015-02-01 13:49:00,
2015-02-01 07:54:00,48.7,46.5,29.74,WNW,292,8.3,8.3,92,0.00,,,0.42,VWS V15.00,2015-02-01 13:54:00,
2015-02-01 07:59:00,48.9,46.7,29.74,NW,315,6.3,9.6,92,0.00,,,0.42,VWS V15.00,2015-02-01 13:59:00,
2015-02-01 08:04:00,48.9,46.7,29.74,NW,315,8.3,8.7,92,0.00,,,0.42,VWS V15.00,2015-02-01 14:04:00,
2015-02-01 08:09:00,49.1,46.9,29.74,NW,315,8.3,8.3,92,0.00,,,0.42,VWS V15.00,2015-02-01 14:09:00,
2015-02-01 08:14:00,49.1,46.9,29.74,NW,315,6.7,8.3,92,0.00,,,0.42,VWS V15.00,2015-02-01 14:14:00,
2015-02-01 08:19:00,49.1,46.9,29.76,NW,315,5.8,8.7,92,0.00,,,0.42,VWS V15.00,2015-02-01 14:19:00,
2015-02-01 08:24:00,49.1,46.9,29.76,NW,315,7.6,7.6,92,0.00,,,0.42,VWS V15.00,2015-02-01 14:24:00,
2015-02-01 08:29:00,49.3,47.1,29.76,NW,315,8.1,10.5,92,0.00,,,0.42,VWS V15.00,2015-02-01 14:29:00,
2015-02-01 08:34:00,49.3,47.1,29.74,NW,315,8.7,8.7,92,0.00,,,0.42,VWS V15.00,2015-02-01 14:34:00,
2015-02-01 08:39:00,49.5,47.2,29.74,NW,315,7.6,7.6,92,0.00,,,0.42,VWS V15.00,2015-02-01 14:39:00,
2015-02-01 08:44:00,49.5,47.2,29.74,NW,315,7.6,7.6,92,0.00,,,0.42,VWS V15.00,2015-02-01 14:44:00,
2015-02-01 08:49:00,49.6,47.4,29.76,NW,315,7.6,8.1,92,0.00,,,0.42,VWS V15.00,2015-02-01 14:49:00,
2015-02-01 08:54:00,49.6,47.4,29.76,North,0,14.5,14.5,92,0.00,,,0.42,VWS V15.00,2015-02-01 14:54:00,
2015-02-01 08:59:00,49.8,47.6,29.76,NW,315,6.3,8.7,92,0.00,,,0.42,VWS V15.00,2015-02-01 14:59:00,
2015-02-01 09:04:00,50.0,47.8,29.76,North,0,7.6,11.0,92,0.00,,,0.42,VWS V15.00,2015-02-01 15:04:00,
2015-02-01 09:09:00,50.2,48.0,29.76,NW,315,8.7,8.7,92,0.00,,,0.42,VWS V15.00,2015-02-01 15:09:00,
2015-02-01 09:14:00,50.2,48.0,29.76,North,0,10.5,13.2,92,0.00,,,0.42,VWS V15.00,2015-02-01 15:14:00,
2015-02-01 09:19:00,50.2,48.0,29.76,North,0,11.0,11.0,92,0.00,,,0.42,VWS V15.00,2015-02-01 15:19:00,
2015-02-01 09:24:00,50.2,48.0,29.76,NNW,338,22.8,22.8,92,0.00,,,0.42,VWS V15.00,2015-02-01 15:24:00,
2015-02-01 09:29:00,50.2,48.0,29.76,North,0,10.1,13.2,92,0.00,,,0.42,VWS V15.00,2015-02-01 15:29:00,
2015-02-01 09:34:00,50.0,47.8,29.76,North,0,17.5,17.5,92,0.00,,,0.42,VWS V15.00,2015-02-01 15:34:00,
2015-02-01 09:39:00,50.0,47.8,29.76,North,0,17.0,21.0,92,0.00,,,0.42,VWS V15.00,2015-02-01 15:39:00,
2015-02-01 09:44:00,49.8,47.6,29.76,North,0,20.1,20.1,92,0.00,,,0.42,VWS V15.00,2015-02-01 15:44:00,
2015-02-01 09:49:00,49.5,47.2,29.76,North,0,19.2,20.6,92,0.00,,,0.42,VWS V15.00,2015-02-01 15:49:00,
2015-02-01 09:54:00,49.1,46.9,29.76,North,0,23.7,28.9,92,0.00,,,0.42,VWS V15.00,2015-02-01 15:54:00,
2015-02-01 09:59:00,48.6,46.3,29.76,North,0,17.5,22.4,92,0.00,,,0.42,VWS V15.00,2015-02-01 15:59:00,
2015-02-01 10:04:00,47.8,45.9,29.76,North,0,9.6,17.0,93,0.00,,,0.42,VWS V15.00,2015-02-01 16:04:00,
2015-02-01 10:09:00,47.1,45.2,29.76,NW,315,14.5,19.7,93,0.00,,,0.42,VWS V15.00,2015-02-01 16:09:00,
2015-02-01 10:14:00,46.4,44.5,29.76,North,0,16.3,22.8,93,0.00,,,0.42,VWS V15.00,2015-02-01 16:14:00,
2015-02-01 10:19:00,45.9,44.0,29.76,North,0,20.6,24.2,93,0.00,,,0.42,VWS V15.00,2015-02-01 16:19:00,
2015-02-01 10:24:00,45.5,43.6,29.76,North,0,23.3,23.3,93,0.00,,,0.42,VWS V15.00,2015-02-01 16:24:00,
2015-02-01 10:29:00,45.0,43.1,29.76,North,0,15.0,24.2,93,0.00,,,0.42,VWS V15.00,2015-02-01 16:29:00,
2015-02-01 10:34:00,43.5,41.6,29.79,North,0,22.8,22.8,93,0.00,,,0.42,VWS V15.00,2015-02-01 16:34:00,
2015-02-01 10:39:00,43.0,41.1,29.79,NNW,338,15.9,17.0,93,0.00,,,0.42,VWS V15.00,2015-02-01 16:39:00,
2015-02-01 10:44:00,41.7,40.1,29.79,NE,45,17.5,22.8,94,0.00,,,0.42,VWS V15.00,2015-02-01 16:44:00,
2015-02-01 10:49:00,41.2,39.6,29.79,North,0,23.7,23.7,94,0.00,,,0.42,VWS V15.00,2015-02-01 16:49:00,